Wind_Speed
30 33 33 32 32 33 33 32 30 28 25 24 24 23 22 21 21 22 21 21 21 20 19 19 19 19 19 18 19 19 18 17 16 15 13 13 12 11 10 10 10 10 10 10 10 10 9 10 10 9 9 9 9 9 9 9 9 8 8 7 7 6 6
30 33 33 33 33 33 34 33 31 29 26 25 24 24 23 22 21 22 22 21 21 21 20 19 19 19 19 18 18 19 19 18 17 16 14 14 13 12 11 11 11 11 11 11 10 10 10 10 10 10 9 9 10 10 11 11 10 9 8 8 8 7 7
30 32 34 35 34 34 34 33 31 29 27 26 25 24 23 21 20 21 21 21 21 21 20 20 19 19 19 19 18 19 19 19 18 17 15 14 14 14 13 12 11 11 11 11 11 11 11 11 11 10 10 10 11 11 12 12 11 10 9 9 8 8 8
31 33 35 36 34 34 34 33 31 30 28 26 25 24 22 20 19 19 20 20 21 21 21 20 19 18 19 19 19 19 19 19 19 18 17 15 15 15 14 13 12 12 11 11 11 11 11 11 11 12 11 11 12 12 12 12 11 11 10 10 9 9 9
30 32 33 35 34 34 34 33 32 30 28 27 26 25 23 21 20 19 19 19 19 20 20 19 19 18 18 18 19 19 18 18 18 18 18 17 16 16 15 14 13 12 11 11 11 12 12 12 12 12 13 12 12 13 12 12 12 12 11 11 10 9 10
29 30 33 34 34 34 34 33 32 30 29 27 26 26 25 23 21 20 19 18 19 19 19 19 19 18 17 18 19 19 18 17 17 17 18 17 17 16 16 14 13 12 12 12 12 13 13 13 13 13 13 13 13 13 13 12 12 12 12 11 11 11 11
28 30 33 34 34 34 34 33 32 31 29 28 27 27 27 25 23 21 20 18 18 19 19 20 19 18 17 18 18 18 18 18 18 17 17 17 17 16 15 14 13 13 12 12 13 13 14 14 14 14 14 14 14 14 13 12 12 12 12 12 12 12 12
27 30 31 33 34 33 33 33 32 31 30 29 28 28 28 27 25 23 21 19 18 19 20 20 20 19 18 18 18 18 18 18 18 18 18 18 17 17 15 14 14 13 13 13 13 13 14 14 14 14 14 14 14 14 13 13 12 12 12 13 13 13 13
26 29 30 31 31 32 33 33 32 31 31 30 28 28 28 28 26 24 22 20 18 18 18 18 18 18 18 18 18 18 18 18 18 18 18 18 18 17 16 15 14 14 14 14 13 13 14 15 15 15 15 15 14 14 14 13 13 13 13 14 14 13 14
26 28 29 29 29 31 32 32 32 32 31 30 29 28 28 28 26 25 23 21 19 18 17 17 16 17 17 17 18 18 18 19 19 19 18 18 18 17 16 15 15 15 15 14 14 14 14 14 15 15 15 15 15 14 14 14 13 14 14 14 14 14 14
27 28 28 29 28 29 30 31 32 32 31 29 28 28 28 27 26 26 24 22 20 19 18 17 16 16 16 16 17 18 18 18 19 19 19 18 18 17 16 16 16 16 16 15 15 14 13 14 14 15 15 15 15 14 14 14 14 15 15 15 14 14 14
26 27 28 29 28 28 29 30 31 30 30 29 28 28 28 27 26 26 24 23 21 20 19 18 17 16 15 16 17 17 18 18 19 19 19 19 18 17 17 17 17 17 16 16 15 14 14 14 14 14 15 15 14 14 14 14 15 15 15 14 14 14 15
23 24 25 26 27 28 29 29 29 28 29 29 28 28 27 26 26 26 25 24 22 20 20 19 18 17 16 16 17 17 17 18 18 18 18 18 18 18 18 17 17 17 16 16 15 15 14 14 14 15 14 15 15 14 14 14 14 15 15 14 14 14 15
21 20 20 20 22 25 26 27 27 26 27 27 27 28 28 27 26 26 26 25 24 22 21 20 19 19 17 17 16 17 16 17 17 16 16 17 17 18 18 18 17 17 17 16 15 15 15 15 15 15 14 15 15 14 14 14 14 15 15 14 14 14 14
19 18 17 16 17 19 21 22 23 24 24 25 26 26 27 27 27 27 27 26 26 24 22 21 20 20 19 18 17 15 15 15 16 16 15 15 16 17 18 18 18 17 17 17 16 16 15 15 15 15 15 15 15 14 14 14 14 15 15 14 14 13 13
15 16 16 15 14 13 14 15 17 20 21 22 23 24 26 27 28 27 27 27 26 25 24 22 21 21 20 20 18 15 14 15 15 16 16 16 16 17 18 18 18 17 17 18 17 17 17 16 16 16 16 15 15 15 15 15 15 15 14 14 14 13 13
10 10 10 10 9 9 9 11 13 16 19 21 23 23 25 26 27 28 28 27 27 26 25 23 22 21 21 21 20 18 16 16 16 16 17 16 16 16 17 18 17 17 18 18 18 18 17 17 17 17 17 16 16 16 16 16 16 15 14 15 15 15 15
7 5 4 5 6 6 8 10 12 14 17 20 22 24 25 26 27 28 28 28 28 27 26 25 24 23 22 21 21 20 19 18 17 17 17 17 17 16 16 17 18 18 18 18 18 18 18 18 18 18 18 18 18 18 17 17 16 15 15 15 16 17 17
6 4 3 4 5 5 6 8 10 13 15 18 20 23 25 26 27 28 28 27 28 27 26 26 26 25 24 22 21 22 21 20 18 17 17 17 17 17 17 17 18 18 18 18 17 18 18 19 19 18 18 18 19 19 18 17 16 16 16 16 16 17 17
9 6 3 2 4 5 6 6 7 9 11 14 16 18 21 23 25 26 25 25 25 26 26 28 28 27 26 24 22 22 22 22 20 18 17 17 17 18 18 18 18 19 19 19 18 18 18 18 18 19 19 18 19 19 18 18 17 17 17 17 17 17 18
11 8 5 1 2 4 6 7 8 9 10 11 11 11 13 16 19 20 20 21 22 23 25 26 27 27 27 25 24 24 24 23 21 19 17 16 17 19 20 19 18 17 19 19 19 19 18 18 19 18 18 19 20 20 19 19 18 18 18 18 18 18 19
12 9 6 3 0 2 3 5 7 9 10 13 13 10 8 10 13 13 13 13 15 17 20 22 24 25 25 24 23 22 21 20 20 19 17 14 15 18 20 20 18 17 18 19 19 20 19 19 19 19 18 19 20 20 20 20 20 19 19 19 19 20 21
13 11 9 6 4 1 1 2 4 5 6 10 14 13 11 11 12 11 11 11 12 13 16 17 18 19 20 20 20 20 18 18 19 19 17 16 15 17 19 20 20 19 18 18 19 20 20 20 20 20 20 19 19 19 20 21 22 22 22 21 21 21 22
12 11 10 8 6 4 2 1 2 4 5 5 8 10 11 12 11 11 12 14 15 15 15 14 13 14 15 16 17 18 17 17 18 17 16 17 18 18 19 21 21 20 19 19 20 20 21 21 21 21 21 21 20 20 21 22 23 24 24 24 23 23 23
13 13 12 11 9 8 6 4 1 1 1 2 2 2 3 4 6 8 11 12 14 15 14 13 13 12 12 13 15 16 15 17 19 19 17 18 19 20 21 20 19 19 20 20 20 21 22 23 22 23 23 23 22 22 23 25 25 26 26 26 26 26 26
16 16 16 15 14 12 10 8 5 3 4 2 2 3 2 3 6 8 9 9 11 12 12 14 15 15 15 16 17 17 16 18 19 18 18 18 17 17 17 16 16 17 18 18 18 20 23 23 22 21 22 21 21 21 23 26 27 28 28 28 28 28 29
17 17 17 16 15 14 14 15 14 11 7 5 4 5 4 4 5 6 5 5 7 8 10 13 16 16 16 16 14 12 13 14 14 14 16 17 15 15 15 14 15 16 17 17 17 18 21 23 21 20 20 19 19 20 22 24 27 29 29 29 28 27 28
19 18 18 17 16 16 17 18 19 18 16 13 10 8 6 6 7 7 6 6 5 5 6 6 7 9 11 12 10 8 8 9 9 10 11 11 11 12 13 14 14 15 16 17 16 17 20 20 19 18 18 18 18 18 20 22 23 24 26 28 27 25 25
19 20 19 19 19 19 19 20 21 21 21 19 17 15 12 11 13 14 13 13 11 10 10 9 8 8 8 8 7 6 4 4 4 5 5 7 8 9 10 11 11 11 12 13 13 14 15 15 15 15 15 15 15 15 15 16 16 15 16 18 18 17 18
19 20 20 20 20 20 21 22 23 23 23 22 20 19 18 17 18 20 21 19 15 12 11 11 9 9 9 10 9 8 7 5 4 2 1 2 4 4 5 6 6 6 7 8 9 10 11 11 11 10 9 9 9 8 8 9 8 8 7 7 8 7 6
19 19 19 19 19 19 20 21 22 22 23 22 21 20 20 19 19 22 24 23 19 17 16 14 12 12 13 14 13 12 11 11 10 9 8 6 4 2 2 3 2 2 2 2 2 4 6 6 5 4 4 3 2 1 2 4 5 6 5 4 3 4 5
18 18 18 19 19 18 18 18 19 20 20 20 19 19 19 18 19 21 22 20 18 18 17 17 17 18 20 20 19 18 16 16 16 15 13 12 10 9 8 8 9 9 9 9 8 6 4 4 4 4 5 5 6 6 7 8 9 10 9 8 7 7 7
19 18 19 19 19 18 18 18 19 19 19 19 18 17 17 17 18 18 17 16 15 14 14 14 15 17 18 19 17 16 14 15 16 16 14 14 14 14 14 14 14 14 15 14 14 13 11 9 9 9 9 9 10 9 9 8 8 7 7 7 7 6 6
20 20 20 20 19 19 20 20 21 20 20 19 17 15 15 15 16 15 14 14 13 11 10 12 13 14 16 17 16 16 16 16 17 16 15 14 14 13 14 14 14 14 14 13 13 12 11 10 10 9 9 8 7 6 6 6 6 6 6 6 6 7 8
19 19 20 19 19 19 20 21 22 22 23 22 20 18 17 16 16 15 14 14 12 10 10 11 12 13 15 16 16 16 17 16 17 17 16 15 14 14 14 14 14 13 13 12 11 10 9 8 7 7 6 4 3 2 3 4 5 6 7 7 8 9 11
17 18 19 19 19 19 19 20 22 22 22 22 21 20 20 19 18 17 16 15 13 11 10 9 9 11 13 14 14 15 15 14 15 15 15 14 14 14 14 14 14 13 12 12 11 9 8 6 4 4 4 3 2 0 1 3 5 7 8 9 10 11 11
13 15 17 18 18 18 18 18 18 18 18 18 18 17 18 17 17 17 17 16 15 13 12 10 9 9 11 12 12 13 13 13 13 13 12 12 12 13 13 12 12 11 10 10 10 8 7 5 3 2 2 2 1 1 2 4 6 7 9 9 10 9 8
11 13 14 15 15 16 16 15 14 13 14 14 14 14 14 14 14 14 14 14 14 14 14 13 11 11 11 10 11 11 10 10 10 10 10 10 10 10 11 10 10 10 10 10 10 9 7 6 4 4 3 2 1 1 2 4 5 6 6 7 7 7 7
Wind_Direction
203 209 211 212 212 212 213 214 215 214 212 210 208 206 204 203 200 197 194 192 192 193 196 199 201 204 206 207 207 206 206 206 206 207 208 206 203 203 206 211 217 221 221 221 219 216 213 213 218 221 222 228 231 232 232 232 236 239 235 230 232 242 247
198 204 208 210 211 212 213 213 215 215 214 212 210 207 207 206 203 199 197 195 194 196 199 201 204 206 208 209 209 210 210 210 211 211 212 212 210 209 211 217 223 227 228 226 222 219 217 217 219 222 225 232 235 235 234 233 235 239 239 238 241 246 248
196 200 204 209 211 213 213 213 214 216 216 215 212 210 209 207 205 202 200 198 196 198 200 204 206 207 209 211 212 212 212 213 214 215 216 216 215 214 215 218 222 226 228 227 224 222 223 223 223 223 225 231 236 237 235 235 235 238 241 244 246 248 248
196 199 204 208 212 214 215 215 216 217 219 218 216 213 211 209 206 205 204 203 201 201 201 204 208 209 210 211 213 215 216 216 217 219 220 221 220 221 222 222 223 225 226 225 224 224 226 228 226 224 225 229 234 238 238 237 237 237 239 242 245 247 249
197 199 202 206 208 212 215 216 218 219 220 221 219 218 216 213 211 209 209 208 209 208 206 206 209 212 213 212 214 217 219 221 222 222 223 222 222 224 226 227 227 226 226 225 225 226 228 229 228 227 227 230 234 237 239 239 239 238 238 240 243 244 246
196 197 200 203 206 211 215 218 220 221 222 223 221 220 219 218 216 214 213 212 213 214 213 211 212 214 216 216 216 218 218 221 222 224 224 222 222 225 227 228 228 228 227 226 226 229 232 233 232 231 231 233 236 238 238 239 239 238 239 241 243 243 244
196 197 201 204 207 212 216 219 221 222 224 224 223 221 220 221 220 217 217 217 216 216 215 214 214 214 216 217 219 220 219 219 221 222 223 223 224 226 227 227 227 229 231 230 229 232 234 236 236 235 234 236 238 240 240 239 238 239 240 242 245 245 247
197 198 202 205 208 212 215 219 221 222 223 223 223 223 222 223 223 221 220 218 217 218 216 215 215 215 214 216 219 221 222 222 222 222 223 224 226 228 229 229 228 229 232 233 233 233 235 237 238 238 237 237 239 242 242 241 239 239 240 243 245 247 249
201 203 206 207 208 211 215 220 221 222 224 224 223 224 224 225 226 225 222 220 218 218 215 213 215 217 217 216 217 221 223 225 225 226 226 226 227 228 229 230 229 229 232 234 234 235 236 237 239 240 240 239 240 241 242 242 239 237 239 243 245 247 250
205 205 207 209 209 211 215 218 219 221 224 224 224 225 226 228 228 228 225 222 220 218 214 212 214 218 220 219 219 221 223 225 227 229 230 230 230 229 229 230 229 229 232 234 235 237 238 239 241 242 242 242 241 241 242 242 239 238 240 243 246 248 251
204 205 207 208 209 212 215 216 218 222 224 225 225 226 228 229 230 230 228 224 221 219 216 214 215 219 221 222 223 223 224 225 227 230 232 233 234 233 230 230 231 231 233 235 236 237 240 241 242 242 242 242 242 242 243 243 242 241 242 245 248 249 251
198 200 204 208 209 211 214 215 219 223 224 225 226 227 230 231 231 232 230 227 224 221 220 219 219 221 224 226 226 225 224 225 228 230 233 234 235 235 232 230 231 233 235 236 237 237 239 241 241 241 242 243 244 245 246 247 246 245 243 245 248 248 249
193 195 199 204 206 208 211 214 218 221 224 226 227 229 232 233 233 233 232 229 226 223 223 224 224 225 227 229 230 228 226 226 229 232 234 235 236 235 233 231 231 233 235 236 238 238 239 241 241 243 244 245 246 248 249 249 248 247 246 246 247 249 249
187 189 192 196 201 205 209 213 216 220 223 225 228 231 233 234 235 235 233 231 228 225 224 225 227 228 229 230 232 231 228 227 230 232 234 236 237 236 235 234 233 233 234 236 238 239 242 243 244 245 247 247 247 248 249 249 248 248 249 249 249 249 249
173 181 186 190 196 202 207 212 215 218 222 225 229 232 234 235 236 236 236 234 231 228 228 228 229 231 231 232 233 233 232 230 231 232 234 234 235 235 235 236 235 235 235 237 239 241 243 244 245 246 247 247 246 245 247 248 249 250 251 250 249 248 248
157 167 178 188 196 202 210 217 222 225 226 228 230 233 236 236 237 237 237 236 234 232 231 231 233 235 234 233 232 233 234 233 232 233 234 234 233 233 234 236 237 237 237 238 240 242 243 242 242 244 245 246 245 245 247 250 251 252 251 248 246 247 250
136 147 158 177 193 205 218 229 236 236 235 235 235 236 238 239 240 239 238 238 238 235 233 234 236 237 237 235 234 233 235 236 236 236 236 237 237 236 235 236 238 239 240 240 242 243 243 241 240 242 244 245 245 245 249 252 252 253 252 248 244 245 250
127 139 144 174 202 215 226 235 240 239 237 237 239 240 241 242 243 242 241 241 240 238 236 236 238 240 241 239 236 235 236 238 240 240 239 240 241 241 240 239 240 241 242 243 245 245 244 242 241 243 244 245 246 247 251 255 254 253 253 252 249 248 249
105 116 146 192 210 220 232 241 246 245 241 238 237 238 240 241 242 243 244 245 244 243 240 239 240 242 244 242 239 237 239 242 244 244 243 241 241 243 245 244 244 245 246 247 247 246 244 243 243 244 245 247 249 251 254 257 258 256 255 257 258 256 256
72 74 78 201 217 227 238 247 254 252 247 241 237 237 238 239 239 240 241 243 246 247 246 243 242 243 245 245 241 238 239 242 244 246 246 245 241 238 240 244 246 248 248 246 246 246 244 242 243 245 246 248 252 254 256 259 260 258 257 257 259 260 260
65 68 64 54 228 235 244 248 250 250 248 240 228 220 224 229 233 235 236 239 244 249 249 246 245 246 247 247 245 243 242 242 244 246 248 251 250 242 236 236 240 244 245 243 242 243 242 241 243 247 249 252 254 257 260 262 263 262 261 259 259 261 262
66 69 73 73 136 234 244 252 256 256 251 239 226 212 202 204 210 216 222 230 242 250 250 249 249 249 249 248 248 249 247 246 247 247 245 251 260 255 243 233 229 234 240 243 245 245 243 241 242 245 251 256 261 263 265 265 265 265 265 264 263 263 263
68 68 69 66 61 55 287 280 284 284 268 239 226 221 217 209 206 212 220 228 239 247 249 248 247 248 248 249 252 253 251 248 247 244 241 244 254 261 254 240 231 231 234 241 250 251 247 244 244 244 247 253 261 267 268 267 267 268 267 267 267 266 265
73 71 70 65 61 59 49 355 280 289 298 269 232 217 214 216 217 223 230 233 236 240 244 245 243 244 245 244 244 245 247 248 249 247 247 248 252 260 261 254 246 244 243 248 257 261 257 250 247 248 249 252 258 266 270 271 270 268 267 268 269 269 268
73 71 68 64 59 53 49 52 54 254 290 300 267 186 185 207 216 222 227 230 233 236 238 240 242 239 233 231 237 243 248 254 255 253 255 260 259 258 260 259 255 252 253 257 264 269 268 260 254 254 256 257 260 265 267 269 269 267 267 267 268 269 270
73 72 70 68 65 61 60 64 77 122 146 141 124 118 130 197 218 223 223 224 232 235 235 237 238 234 232 238 248 250 247 250 253 251 255 263 264 257 255 255 253 253 257 262 266 269 270 267 262 261 262 261 262 262 262 265 267 266 265 265 265 267 268
75 75 75 75 75 75 76 78 81 92 106 115 128 136 151 183 195 201 204 213 227 230 230 234 235 229 228 234 237 233 231 238 243 241 245 255 260 259 257 256 256 258 261 263 265 266 267 267 265 264 262 260 260 261 262 266 267 266 265 264 263 264 265
80 80 81 84 85 83 84 83 81 81 81 80 85 95 116 144 143 136 139 140 135 140 163 193 205 202 207 213 213 212 223 234 237 234 239 250 260 265 265 261 259 260 261 262 265 267 266 265 264 263 262 260 258 261 265 268 270 269 267 264 263 262 261
83 83 84 87 87 85 85 84 80 77 75 75 77 84 96 108 108 106 110 110 105 108 119 126 130 140 154 160 155 149 153 172 204 228 247 265 273 273 270 264 258 256 259 263 266 264 260 259 260 260 260 259 258 262 268 273 278 281 275 270 268 265 258
82 82 82 83 84 84 85 84 81 79 78 79 81 84 88 92 93 91 87 84 84 89 97 106 116 125 126 122 119 117 113 109 107 94 44 309 295 272 254 250 246 246 257 265 266 259 251 250 252 250 246 248 255 265 278 290 303 311 302 288 287 288 280
82 81 81 82 81 82 83 83 83 82 79 78 78 79 82 86 88 86 80 76 78 83 87 92 98 102 101 100 100 99 95 94 92 85 78 69 59 78 161 177 169 171 192 208 225 238 234 230 230 223 212 216 235 309 0 18 31 32 28 20 8 5 12
83 81 81 81 80 80 80 80 79 78 76 74 71 73 76 79 81 80 76 72 72 76 82 89 92 93 92 92 92 93 94 95 93 88 84 81 77 78 88 96 103 108 110 110 109 107 112 120 123 124 118 106 99 94 85 78 74 68 61 55 53 48 44
84 82 80 79 78 79 81 81 79 78 76 73 70 70 74 78 79 78 75 72 71 72 76 79 81 84 85 84 82 82 83 85 86 85 84 84 85 86 90 95 101 105 105 102 100 99 96 93 95 100 97 94 95 96 88 77 69 63 52 40 33 29 23
84 83 81 79 79 80 82 82 81 80 79 77 76 75 75 77 79 79 79 80 81 83 82 77 74 75 78 78 76 74 74 77 82 87 88 89 90 94 97 98 99 99 98 97 97 99 99 96 95 96 94 89 89 87 74 55 37 23 13 6 2 360 355
85 85 84 84 83 83 83 83 82 82 81 80 79 79 78 78 78 80 83 85 87 92 92 85 78 77 78 80 81 80 80 83 87 90 90 88 89 90 91 91 90 88 87 87 88 91 95 98 101 103 103 100 88 64 37 17 357 343 341 341 340 338 335
85 87 89 88 89 88 88 87 86 84 82 80 77 76 75 75 76 77 79 83 85 88 89 86 82 80 81 82 83 83 84 88 91 91 89 87 87 87 85 84 83 82 81 81 82 84 88 96 110 117 128 155 177 190 334 332 325 322 325 328 325 325 325
88 91 92 93 94 94 94 92 88 82 78 76 73 70 68 68 69 69 70 72 75 78 81 83 85 88 88 88 87 85 86 90 93 92 87 84 84 82 80 79 79 79 78 77 76 79 85 95 114 130 148 176 187 229 285 305 315 319 323 326 328 333 340
102 98 98 98 98 98 98 96 89 81 77 73 69 66 62 60 59 59 61 63 64 67 71 76 81 89 96 99 98 95 94 94 93 89 83 80 81 79 77 77 78 79 79 76 74 76 80 87 96 100 100 107 98 332 319 324 331 337 344 355 8 25 39
Height
1530 1532 1535 1538 1541 1543 1545 1548 1550 1552 1555 1557 1560 1562 1564 1566 1568 1569 1571 1572 1574 1576 1578 1579 1581 1582 1584 1585 1587 1588 1590 1591 1592 1594 1595 1596 1597 1598 1599 1600 1601 1602 1603 1603 1604 1605 1606 1607 1607 1608 1609 1609 1610 1611 1611 1611 1612 1613 1613 1614 1614 1615 1615
1528 1530 1533 1536 1539 1541 1544 1546 1548 1551 1553 1556 1558 1561 1563 1565 1566 1568 1570 1571 1573 1575 1577 1578 1580 1581 1583 1585 1586 1587 1589 1590 1591 1593 1594 1595 1596 1597 1598 1599 1600 1601 1602 1603 1603 1604 1605 1606 1607 1607 1608 1609 1609 1610 1610 1611 1611 1612 1612 1613 1613 1614 1614
1526 1528 1530 1533 1536 1539 1542 1544 1547 1549 1552 1554 1556 1559 1561 1563 1565 1566 1568 1570 1572 1574 1576 1577 1579 1580 1582 1584 1585 1587 1588 1589 1591 1592 1593 1594 1595 1596 1597 1598 1599 1600 1601 1601 1602 1603 1604 1605 1606 1606 1607 1608 1608 1609 1610 1610 1610 1611 1611 1612 1612 1613 1613
1524 1526 1528 1531 1534 1537 1540 1542 1545 1547 1550 1552 1555 1557 1559 1561 1563 1565 1567 1569 1571 1572 1574 1576 1577 1579 1581 1582 1584 1586 1587 1588 1590 1591 1592 1593 1595 1595 1596 1597 1598 1599 1600 1600 1601 1602 1603 1604 1605 1605 1606 1607 1607 1608 1609 1609 1609 1610 1610 1611 1611 1612 1612
1522 1524 1527 1530 1533 1536 1538 1541 1543 1546 1548 1551 1553 1556 1558 1560 1562 1564 1566 1567 1569 1571 1572 1574 1576 1578 1579 1581 1583 1584 1586 1587 1588 1590 1591 1592 1593 1594 1595 1596 1597 1598 1599 1600 1601 1601 1602 1603 1604 1604 1605 1606 1606 1607 1607 1608 1608 1609 1609 1610 1610 1610 1611
1520 1523 1526 1528 1531 1534 1536 1539 1542 1544 1547 1549 1551 1554 1557 1559 1561 1562 1564 1566 1568 1570 1571 1573 1575 1576 1578 1579 1581 1583 1584 1586 1587 1589 1590 1591 1592 1593 1594 1595 1596 1597 1598 1599 1600 1600 1601 1602 1603 1603 1604 1605 1605 1606 1606 1607 1607 1608 1608 1609 1609 1610 1610
1518 1521 1524 1527 1529 1532 1534 1537 1540 1543 1545 1548 1550 1553 1555 1557 1559 1561 1563 1565 1566 1568 1570 1571 1573 1574 1576 1578 1579 1581 1582 1584 1585 1587 1588 1590 1591 1592 1593 1594 1595 1596 1597 1598 1598 1599 1600 1601 1602 1602 1603 1603 1604 1604 1605 1606 1606 1607 1607 1608 1608 1608 1609
1517 1519 1522 1525 1528 1531 1533 1536 1538 1541 1543 1546 1549 1551 1553 1556 1557 1559 1561 1563 1565 1566 1568 1570 1571 1573 1574 1576 1578 1579 1581 1582 1584 1585 1587 1588 1589 1590 1592 1593 1594 1595 1596 1596 1597 1598 1599 1600 1600 1601 1601 1602 1603 1603 1604 1604 1605 1606 1606 1606 1607 1607 1608
1516 1518 1521 1523 1526 1529 1532 1534 1537 1539 1541 1544 1547 1549 1551 1554 1555 1558 1560 1562 1564 1565 1566 1568 1570 1571 1573 1574 1576 1578 1579 1581 1582 1583 1585 1586 1587 1589 1590 1591 1592 1593 1594 1595 1596 1596 1597 1598 1599 1599 1600 1600 1601 1602 1602 1603 1603 1604 1604 1605 1606 1606 1606
1515 1517 1520 1522 1525 1528 1530 1533 1535 1538 1540 1542 1545 1547 1549 1552 1554 1556 1558 1560 1562 1564 1565 1567 1569 1570 1572 1573 1575 1576 1578 1579 1580 1582 1583 1584 1586 1587 1588 1590 1591 1592 1593 1594 1594 1595 1596 1596 1597 1598 1598 1599 1600 1600 1601 1601 1602 1602 1603 1603 1604 1604 1605
1513 1516 1519 1521 1524 1526 1529 1532 1534 1536 1538 1540 1543 1545 1547 1550 1552 1554 1556 1559 1561 1563 1565 1566 1568 1569 1570 1572 1573 1575 1576 1578 1579 1580 1582 1583 1584 1586 1587 1588 1589 1590 1591 1592 1593 1593 1594 1595 1595 1596 1597 1597 1598 1599 1599 1600 1600 1601 1601 1602 1602 1603 1603
1513 1515 1518 1520 1522 1525 1527 1530 1532 1534 1536 1539 1541 1543 1545 1548 1550 1552 1555 1557 1559 1561 1563 1564 1566 1567 1569 1571 1572 1573 1575 1576 1577 1579 1580 1582 1583 1584 1586 1587 1588 1589 1589 1590 1591 1592 1593 1593 1594 1594 1595 1596 1597 1597 1598 1598 1599 1599 1600 1600 1601 1601 1601
1512 1514 1517 1519 1521 1524 1526 1528 1530 1532 1535 1537 1539 1542 1544 1546 1548 1550 1553 1555 1557 1560 1561 1563 1564 1566 1567 1569 1570 1572 1573 1574 1576 1577 1579 1580 1581 1583 1584 1585 1586 1587 1588 1589 1590 1591 1591 1592 1593 1593 1594 1595 1595 1596 1597 1597 1598 1598 1598 1599 1599 1599 1600
1512 1515 1518 1519 1521 1524 1525 1527 1529 1531 1533 1536 1538 1540 1542 1544 1546 1549 1551 1553 1555 1558 1559 1561 1562 1564 1566 1567 1569 1570 1571 1573 1575 1576 1577 1579 1580 1581 1582 1583 1585 1585 1587 1588 1588 1589 1590 1591 1591 1592 1593 1593 1594 1595 1595 1595 1596 1596 1597 1597 1597 1598 1598
1513 1515 1518 1520 1522 1524 1525 1527 1529 1530 1533 1534 1536 1538 1540 1542 1544 1546 1549 1551 1553 1555 1557 1559 1561 1562 1564 1565 1567 1569 1570 1572 1573 1574 1575 1576 1578 1579 1580 1582 1583 1584 1585 1586 1587 1588 1589 1589 1590 1591 1591 1592 1592 1593 1593 1594 1594 1594 1595 1596 1596 1596 1597
1514 1516 1519 1521 1523 1524 1526 1527 1529 1530 1532 1533 1535 1537 1538 1540 1542 1544 1546 1548 1551 1553 1555 1557 1559 1560 1562 1564 1565 1567 1569 1570 1571 1572 1573 1574 1576 1577 1578 1579 1581 1582 1583 1584 1585 1586 1587 1588 1589 1589 1590 1590 1591 1591 1592 1592 1592 1593 1593 1594 1594 1595 1595
1516 1518 1519 1521 1523 1524 1526 1527 1529 1530 1532 1533 1534 1535 1537 1538 1540 1542 1544 1546 1548 1550 1552 1554 1556 1558 1560 1562 1563 1565 1566 1568 1569 1570 1571 1572 1574 1575 1576 1578 1579 1580 1581 1582 1583 1584 1585 1586 1587 1587 1588 1589 1589 1590 1590 1590 1591 1591 1592 1592 1592 1593 1593
1518 1519 1520 1522 1523 1524 1526 1527 1528 1530 1531 1532 1533 1534 1536 1537 1538 1540 1542 1543 1545 1548 1550 1552 1554 1555 1557 1559 1561 1563 1564 1565 1566 1568 1569 1570 1572 1573 1575 1576 1577 1578 1579 1580 1581 1582 1583 1584 1584 1585 1586 1587 1587 1588 1588 1589 1589 1590 1590 1590 1590 1591 1591
1519 1520 1522 1523 1523 1524 1525 1526 1528 1529 1529 1530 1531 1532 1534 1535 1537 1538 1540 1542 1544 1546 1548 1549 1551 1553 1555 1557 1559 1560 1562 1563 1564 1566 1567 1568 1569 1571 1572 1574 1575 1576 1577 1578 1579 1580 1580 1581 1582 1583 1584 1585 1585 1586 1586 1587 1587 1588 1588 1589 1589 1589 1589
1519 1521 1522 1523 1523 1524 1525 1526 1528 1528 1528 1529 1530 1530 1532 1534 1535 1536 1538 1540 1542 1544 1546 1547 1549 1550 1552 1554 1556 1557 1559 1561 1562 1563 1565 1566 1567 1568 1569 1571 1572 1573 1575 1576 1577 1578 1578 1579 1580 1581 1582 1582 1583 1583 1583 1584 1585 1586 1586 1587 1587 1587 1587
1521 1521 1523 1524 1524 1525 1527 1528 1528 1528 1529 1529 1529 1529 1531 1532 1533 1535 1537 1538 1540 1542 1544 1546 1547 1548 1550 1551 1553 1554 1556 1558 1559 1561 1563 1564 1566 1566 1567 1568 1569 1571 1572 1574 1575 1575 1576 1576 1577 1578 1579 1580 1581 1581 1581 1582 1583 1584 1584 1584 1585 1585 1585
1522 1523 1524 1525 1525 1525 1526 1527 1527 1527 1528 1528 1529 1529 1530 1531 1532 1533 1535 1536 1538 1541 1543 1544 1545 1547 1548 1549 1551 1552 1555 1556 1557 1559 1560 1562 1564 1565 1566 1566 1566 1567 1569 1571 1572 1573 1573 1574 1574 1575 1576 1577 1578 1579 1579 1579 1580 1581 1582 1582 1582 1582 1582
1524 1524 1524 1525 1525 1525 1525 1525 1525 1525 1526 1526 1527 1528 1529 1530 1531 1532 1533 1535 1536 1540 1542 1543 1544 1545 1546 1548 1549 1551 1553 1554 1556 1556 1557 1559 1561 1563 1565 1565 1564 1565 1566 1568 1570 1571 1572 1572 1572 1572 1573 1574 1575 1576 1576 1577 1578 1578 1579 1579 1580 1580 1580
1524 1524 1524 1524 1525 1525 1524 1524 1524 1524 1525 1525 1526 1527 1528 1529 1529 1530 1532 1533 1535 1539 1541 1542 1542 1543 1544 1546 1547 1549 1551 1553 1555 1555 1555 1556 1558 1560 1562 1563 1563 1564 1565 1566 1567 1569 1569 1569 1569 1570 1571 1571 1572 1573 1574 1574 1575 1576 1576 1576 1577 1577 1577
1525 1525 1525 1525 1525 1525 1525 1524 1524 1524 1524 1525 1525 1526 1527 1527 1528 1529 1531 1532 1535 1537 1539 1540 1540 1541 1542 1544 1545 1547 1548 1550 1553 1553 1553 1554 1556 1557 1559 1560 1561 1561 1562 1563 1565 1567 1567 1567 1567 1568 1568 1569 1569 1570 1571 1571 1572 1572 1573 1573 1574 1574 1574
1527 1526 1526 1526 1526 1525 1525 1524 1523 1523 1525 1525 1526 1526 1527 1528 1529 1530 1530 1531 1533 1535 1536 1537 1538 1540 1541 1542 1543 1545 1546 1548 1550 1550 1550 1553 1554 1555 1555 1556 1557 1558 1558 1559 1561 1564 1565 1565 1565 1565 1565 1566 1566 1566 1567 1567 1568 1569 1569 1570 1570 1570 1570
1528 1528 1527 1527 1527 1526 1526 1525 1524 1524 1525 1526 1526 1527 1528 1529 1530 1530 1530 1530 1532 1533 1535 1536 1536 1538 1540 1541 1541 1542 1543 1545 1546 1546 1548 1552 1553 1552 1553 1554 1554 1555 1556 1557 1557 1559 1562 1563 1562 1561 1562 1563 1563 1563 1563 1564 1565 1566 1566 1567 1567 1567 1567
1530 1529 1529 1529 1528 1528 1527 1527 1527 1526 1527 1527 1527 1528 1528 1529 1530 1530 1530 1531 1532 1533 1534 1535 1536 1537 1539 1540 1540 1540 1541 1542 1544 1546 1548 1550 1550 1550 1550 1552 1553 1553 1554 1554 1555 1556 1558 1560 1559 1559 1560 1561 1561 1560 1560 1560 1562 1563 1563 1563 1563 1563 1563
1532 1532 1531 1531 1530 1530 1529 1529 1529 1529 1529 1529 1529 1529 1530 1530 1531 1531 1532 1532 1533 1533 1534 1535 1536 1538 1539 1540 1540 1540 1541 1543 1545 1546 1547 1547 1547 1549 1550 1550 1551 1552 1552 1552 1553 1555 1556 1557 1557 1557 1558 1559 1558 1557 1557 1558 1559 1560 1561 1561 1561 1560 1560
1534 1534 1533 1532 1532 1532 1532 1532 1532 1532 1532 1532 1532 1532 1532 1533 1533 1534 1534 1535 1535 1536 1536 1537 1538 1539 1540 1540 1539 1540 1541 1543 1544 1545 1544 1545 1546 1549 1550 1550 1549 1550 1550 1551 1552 1554 1555 1556 1556 1556 1556 1557 1556 1555 1555 1557 1558 1559 1560 1560 1559 1559 1559
1536 1536 1535 1535 1535 1535 1534 1534 1534 1534 1534 1534 1535 1535 1535 1535 1536 1537 1537 1538 1539 1539 1538 1539 1540 1540 1540 1539 1539 1540 1541 1542 1543 1544 1544 1545 1547 1548 1549 1549 1548 1549 1550 1551 1552 1553 1554 1555 1555 1555 1555 1555 1554 1554 1555 1557 1558 1559 1560 1560 1559 1559 1559
1538 1537 1537 1537 1536 1536 1537 1537 1537 1537 1536 1537 1538 1538 1538 1539 1539 1539 1540 1541 1541 1541 1541 1542 1542 1542 1542 1542 1542 1542 1543 1543 1544 1544 1545 1546 1547 1548 1548 1549 1549 1550 1551 1552 1553 1554 1554 1555 1555 1555 1555 1555 1554 1555 1557 1559 1560 1560 1561 1560 1560 1559 1559
1540 1539 1539 1538 1538 1538 1539 1539 1539 1539 1539 1539 1540 1541 1541 1542 1542 1542 1543 1544 1544 1544 1544 1545 1545 1545 1545 1544 1544 1544 1543 1543 1544 1545 1546 1547 1548 1549 1549 1550 1551 1551 1552 1553 1553 1554 1555 1555 1555 1555 1555 1556 1556 1557 1558 1560 1561 1561 1561 1561 1560 1559 1559
1542 1542 1541 1540 1540 1541 1541 1540 1541 1541 1541 1541 1542 1543 1543 1544 1544 1545 1546 1546 1546 1547 1547 1547 1547 1546 1546 1546 1545 1544 1544 1545 1546 1547 1548 1549 1550 1551 1551 1552 1553 1553 1553 1553 1554 1554 1555 1556 1556 1557 1557 1558 1558 1559 1560 1560 1561 1561 1560 1560 1560 1559 1558
1544 1544 1543 1543 1543 1542 1542 1543 1543 1543 1543 1544 1544 1545 1545 1545 1546 1547 1547 1547 1548 1548 1548 1548 1548 1547 1547 1546 1546 1547 1547 1548 1548 1550 1550 1551 1552 1553 1553 1553 1554 1554 1554 1554 1555 1555 1555 1556 1557 1558 1558 1559 1559 1560 1560 1561 1561 1561 1560 1559 1558 1558 1557
1546 1546 1546 1545 1545 1545 1544 1545 1545 1545 1546 1546 1547 1547 1547 1547 1547 1548 1548 1548 1549 1549 1548 1548 1548 1548 1548 1548 1548 1549 1549 1550 1551 1552 1552 1553 1553 1554 1554 1554 1554 1555 1555 1555 1556 1556 1556 1557 1557 1558 1558 1559 1559 1560 1560 1560 1561 1560 1559 1558 1557 1556 1555
1547 1547 1547 1548 1547 1547 1547 1547 1547 1547 1548 1548 1548 1549 1549 1549 1549 1549 1549 1549 1549 1549 1549 1548 1548 1548 1549 1549 1550 1550 1551 1552 1552 1553 1554 1554 1554 1554 1555 1555 1555 1555 1556 1556 1556 1557 1557 1557 1557 1558 1559 1559 1559 1560 1560 1560 1560 1559 1558 1557 1556 1555 1554
1548 1548 1549 1549 1549 1549 1549 1549 1549 1549 1549 1549 1550 1550 1550 1550 1550 1550 1550 1550 1550 1550 1550 1550 1550 1550 1550 1550 1551 1552 1552 1553 1553 1554 1554 1554 1555 1555 1555 1555 1556 1556 1556 1557 1557 1557 1557 1557 1558 1558 1559 1559 1560 1560 1560 1560 1559 1558 1557 1557 1556 1555 1554